Погода в Аспиндзе

Погода в Аспиндзе : погода сейчас, прогноз погоды и архив. Всё, что Вы хотите узнать о погоде в Аспиндзе!

Поиск расширенной информации на нашем сайте:

Полезная информация: как избавиться от целлюлита
ссангйонг кайрон ремонт

Другие новости

Новости СМИ2

Главная страница сайта

Новости сайта

02.10.2013

Напоминаем, что на нашем новом сайте вы можете получить высокодетализированные прогнозы погоды по пунктам России, СНГ и мира (включающие важные для авиации метеовеличины, такие как направление и скорость ветра, видимость, явления погоды, количество и форма облачности, нижняя и верхняя граница облачности), а также ознакомиться с разнообразными материалами по авиационной метеорологии и подборкой полезных ссылок на эту тему.

Сайт Метеоцентр.Азия посвящён разработке технологий оптимизации авиаметеорологического обслуживания, включая проектирование и перспективное создание нескольких автоматизированных авиаметеорологических систем:
- система выпуска высокодетальных прогностических карт явлений погоды для нижнего воздушного пространства по России и ближнему зарубежью;
- система верификации прогнозов TAF (выпускаемых синоптиками официальных АМСГ РФ и ближнего зарубежья) и AUTOTAF (выпускаемых сайтом Метеоцентр.Азия) - выявление ошибок, онлайн-сопоставление с фактической погодой METAR, автоматическое внесение коррективов в прогнозы при резком отклонении фактической погоды от прогноза, подсчёт оправдываемости прогнозов по элементам и в целом;
- система обработки, анализа и отображения авиаметеорологической информации для применения провайдерами метеорологической информации.

Рекомендуем: Например, при воспроизведении рекламные экраны в спб состоянии "покоя"

Погода в Аспиндзе - сегодня

Время (UTC), дата Ветер
(°,м/с) 
Видим.   Явления Облачность Т
(°С)
Тd
(°С)
f(%) Тe
(°С)
Pmin
(гПа)
dP
(гПа)
Po
(мм)
O2
(г/м3)
Тmin Tmax R s Состояние
почвы
18 23.05.17 тихо ()   4000 м  слаб. ливневой дождь  10/10 600 м кучево-дожд. 
[Cb cap]
+8.4 +8 97 +8  1009.8  -2.2      +19.3       
21 23.05.17 тихо ()   4000 м  слаб. ливневой дождь  10/10 600 м кучево-дожд. 
[Cb cap]
+8.5 +8.1 97 +9  1008.9  -0.8             
03 24.05.17 тихо ()   4000 м  слаб. ливневой дождь  10/10 600 м кучево-дожд. 
[Cb cap]
+8.2 +8 99 +8  1011.2  2.8           
06 24.05.17 тихо ()   20000 м  в посл. час дождь со снегом{ливн. осадки}  10/10 1000 м кучево-дожд. 
[Cb cap]
+8.8 +7.3 90 +9  1014.6  3.2  676  262  +8       
09 24.05.17 тихо ()   20000 м  {ливн. осадки}  9/9 1000 м 
[Sc]
+12.6 +5.3 61 +13  1015.7  2.3  678  260           
12 24.05.17 090 (В) 20000 м  {ливн. осадки}  9/9 1000 м 
[Sc]
+14.2 +6.5 60 +14  1015.1  678  258           
18 24.05.17 тихо ()   4000 м  слаб. ливневой дождь  10/10 1000 м кучево-дожд. 
[Cb cap]
+9.2 +6.7 84 +9  1018.7  0.3  679  263    +15     
00 25.05.17 000 (С) 52  4000 м    8/8 1000 м 
[Sc]
+5   1023.2  1.1  681             
03 25.05.17 тихо ()   20000 м    10/10 600 м 
[Sc]
+5.8 +4.4 91 +6  1023.5  0.4  681  268      0.4     
06 25.05.17 тихо ()   20000 м    4/4 1000 м 
[Sc]
+10.8 +4.6 65 +11  1019.6  -1.4  680  263  +4.5    0.4     
09 25.05.17 270 (З) 20000 м    3/3 1000 м 
[Sc]
+16.4 +5.6 49 +18  1015.9  -1.3  679  257           
12 25.05.17 270 (З) 20000 м    3/3 1000 м 
[Sc]
+20.6 +5 36 +21  1012.6  -1.5  678  253           
18 25.05.17 тихо ()   4000 м    1/1 1000 м 
[Sc]
+11.5 +5 64 +12  1019.9  1.9  680  262    +21.9       
21 25.05.17 тихо ()   4000 м    ясно 
+6.6 +5 90 +7  1022  680  267           
00 26.05.17 тихо ()   4000 м    ясно 
+5.5 +3.8 89 +6  1023  0.5  680  268           
03 26.05.17 тихо ()   20000 м    8/8 1000 м средняя 
[Sc|Ac lent]
+5.6 +4.4 92 +6  1023  680  268           
06 26.05.17 тихо ()   20000 м    8/8 1000 м средняя, верхняя 
[Sc|Ac lent|Ci fib]
+12.5 +5.6 63 +13  1018.8  -1.1  680  261  +4         
09 26.05.17 тихо ()   20000 м    6/6 1000 м верхняя 
[Sc|Ci fib]
+20.2 +9 48 +22  1012.1  -3  677  252           
12 26.05.17 тихо ()   20000 м    3/3 1000 м 
[Sc]
+22.6 +8 39 +23  1009.8  -1.4  676  250           
03 27.05.17 тихо ()   4000 м    10/10 1000 м кучево-дожд. 
[Cb cap]
+10.6 +10.4 99 +14  1014.6  -0.2  675  260         
09 27.05.17 тихо ()   20000 м    1/1 1000 м 
[Cu med, cong]
+19.8 +9.9 53 +23  1009.4  -1.2  675  252           
12 27.05.17 140 (ЮВ) 20000 м  {гроза}  8/8 1000 м средняя 
[Cu med, cong|Ac lent]
+22.4 +9.9 45 +22  1005.3  -2.8             
03 28.05.17 тихо ()   20000 м    9/9 1000 м 
[Sc]
+10.7 +10.7 100 +15  1015.9  -0.9  677  260      0.9     
21 29.05.17 тихо ()   4000 м    ясно 
+12.6 +11.3 92 +18  1018.2  0.4  679  259           
00 30.05.17 тихо ()   4000 м    ясно 
+10.2 +9.8 97 +13  1020.3  0.9  680  262           
Время (UTC), дата Ветер
(°,м/с) 
Видим.   Явления Облачность Т
(°С)
Тd
(°С)
f(%) Тe
(°С)
Pmin
(гПа)
dP
(гПа)
Po
(мм)
O2
(г/м3)
Тmin Tmax R s Состояние
почвы

Для получения пояснительной информации подведите курсор к названию столбца.

ПОГОДА в Аспиндзе - архив

Всё, что Вы хотите узнать о погоде в Аспиндзе - удобно и подробно!

Выберите нужную дату (начиная с 1 января 2015* года) и нажмите кнопку "Найти".
Будут отображены архивные сводки погоды по пункту Аспиндза, начиная с указанной даты.


Отображать данные в формате CSV (для использования в таблицах Excel)


Внимание! Наш архив погоды предназначен исключительно для личного некоммерческого использования в познавательных целях. Если Вам необходимы официальные справки о состоянии погоды (для производственных, юридических, коммерческих и т.п. целей), обращайтесь в органы Росгидромета.

*Примечание: данная дата относится к архиву по метеостанциям СССР (Россия, СНГ, Балтия).
Архив по метеостанциям Зарубежной Европы и Азии (кроме Китая) хранится 10 дней, по другим регионам земного шара (Китай, Африка, Америка, Австралия, Океания) - 1 день.

Аспиндза - район местоположения метеостанции


Название, широта, долгота, высота метеостанции:
Аспиндза 41.6°ш. 43.2°д. 983 м над ур. моря [Грузия]

Дополнительная информация

В oтличие oт бoльшинства пoгoдных сайтoв мы публикуем пoдрoбную метеoинфoрмацию в детальнoм прoфессиoнальнoм фoрмате.

Характеристики температуры и влажнoсти вoздуха измеряются на высoте 2 м в тени вдали oт зданий и деревьев.
Скoрoсть ветра измеряется на высoте 10 м (на урoвне рoста челoвека скoрoсть ветра ниже в 1.5-2 раза). Если метеoстанция нахoдится в гoрoде или в лесу, тo скoрoсть ветра занижена на 2-4 м/с пo сравнению с oткрытым местoм. Скoрoсть ветра над акватoриями крупных рек и oзёр, а также на вершинах хoлмoв на 2-5 м/с выше, чем в oбычных услoвиях.
Атмoсфернoе давление в разных тoчках местнoсти мoжет значительнo oтличаться oт давления на метеoстанции, в зависимoсти oт услoвий рельефа (при пoдъёме на 10 м давление пoнижается примернo на 1 мм рт.ст.).